sat.trackr.live / text

‹ back to catalog

STARLINK-32548

NORAD 62120 · 2024-222G

PAYLOAD ACTIVE UNKNOWN

§ Identity

Operator
Country
US
Launch date
2024-11-27
Launch site
AFETR
Launch vehicle
Mass (kg)
RCS (m²)

Purposes: comms

External: N2YO · Heavens-Above · Gunter

§ Orbital elements

Epoch: 2026-09-20T20:32:22.556832Z

Period
94.27 min
Inclination
42.9974°
Eccentricity
0.0001414
Mean motion
15.27587084 rev/d
Perigee alt
482.1 km
Apogee alt
484.0 km
Semi-major
6,861.2 km
B*
4.3883e-4
RAAN
114.2871°
Arg perigee
279.7962°
Mean anomaly
80.2730°
Rev number
10,260

§ Raw data

STARLINK-325481 62120U 24222G   26263.85581663  .00011836  00000+0  43883-3 0  99912 62120  42.9974 114.2871 0001414 279.7962  80.2730 15.27587084102600

JSON: /api/v1/satellites/62120 · /tle

For live sub-satellite position, see the globe view (requires WebGL).

§ Visibility from observer

Set your observer location to see the next 7 days of passes ≥ 10°. The values pass through the URL so the page stays shareable.

No JS? Fill the form by hand. The geolocation button needs JavaScript.